Date,TemperatureHighF,TemperatureAvgF,TemperatureLowF,DewpointHighF,DewpointAvgF,DewpointLowF,HumidityHigh,HumidityAvg,HumidityLow,PressureMaxIn,PressureMinIn,WindSpeedMaxMPH,WindSpeedAvgMPH,GustSpeedMaxMPH,PrecipitationSumIn
2013-1-1,51.8,45.6,40.1,45.0,41.8,38.0,94,87,67,30.24,30.17,11,3,13,0.06
2013-1-2,49.6,47.8,45.5,45.0,42.6,39.0,91,83,68,30.35,30.13,18,6,21,0.02
2013-1-3,55.2,51.2,46.5,43.0,40.7,38.0,78,67,60,30.56,30.36,10,5,12,0.00
2013-1-4,52.6,49.4,45.3,42.0,38.5,36.0,76,66,57,30.56,30.36,19,8,24,0.00
2013-1-5,50.2,47.0,42.5,43.0,39.5,35.0,85,75,57,30.35,30.16,21,9,26,0.00
2013-1-6,55.5,49.7,46.1,48.0,41.3,34.0,96,74,56,30.30,30.16,8,3,12,0.00
2013-1-7,56.1,51.0,44.1,46.0,41.6,35.0,95,72,55,30.31,30.11,9,4,12,0.00
2013-1-8,51.4,47.7,44.3,46.0,41.4,35.0,88,79,59,30.36,30.28,9,3,15,0.00
2013-1-9,52.1,47.1,43.7,43.0,40.4,38.0,86,77,66,30.28,30.11,12,2,13,0.00
2013-1-10,47.9,46.9,45.6,45.0,42.8,40.0,94,86,73,30.11,29.82,13,3,17,0.13
2013-1-11,50.4,45.3,40.9,46.0,41.9,38.0,96,88,74,29.85,29.70,13,4,20,0.11
2013-1-12,50.3,45.3,40.6,44.0,40.3,35.0,94,83,71,30.04,29.82,9,4,16,0.00
2013-1-13,49.2,46.4,43.9,48.0,44.8,42.0,98,94,86,30.02,29.76,19,7,30,1.68
2013-1-14,48.9,46.6,43.5,48.0,44.5,39.0,98,92,83,29.91,29.73,22,7,27,0.21
2013-1-15,47.9,43.2,40.7,41.0,38.4,34.0,94,83,62,29.91,29.57,16,4,30,0.16
2013-1-16,42.9,38.5,34.5,41.0,36.3,33.0,96,91,78,29.57,29.43,23,5,25,1.13
2013-1-17,43.6,39.2,33.1,40.0,36.7,32.0,96,90,78,29.46,29.31,12,4,24,0.41
2013-1-18,40.6,35.8,33.2,34.0,32.4,30.0,98,88,75,29.62,29.33,28,7,32,0.06
2013-1-19,49.9,41.4,36.7,49.0,35.9,26.0,98,81,61,29.65,29.54,19,7,37,0.23
2013-1-20,53.1,51.2,46.7,53.0,51.1,47.0,99,99,98,29.56,29.43,26,11,33,1.17
2013-1-21,48.8,45.8,41.5,47.0,43.5,38.0,99,92,73,29.54,29.36,12,4,22,0.36
2013-1-22,47.2,44.6,41.0,44.0,39.2,34.0,96,82,69,29.79,29.53,17,4,27,0.16
2013-1-23,45.2,42.8,40.0,42.0,39.6,36.0,97,88,82,29.80,29.55,18,6,25,0.68
2013-1-24,46.5,42.7,38.1,43.0,39.6,36.0,94,89,81,29.54,29.38,12,4,18,0.13
2013-1-25,48.1,42.3,36.8,39.0,35.1,29.0,96,77,55,29.63,29.40,16,7,20,0.00
2013-1-26,47.0,41.4,37.1,38.0,33.8,31.0,88,75,63,29.84,29.60,9,4,11,0.00
2013-1-27,47.3,41.4,36.8,40.0,35.9,30.0,90,81,68,29.98,29.84,9,2,13,0.00
2013-1-28,46.2,43.3,40.1,42.0,39.2,29.0,94,85,63,30.03,29.80,24,8,25,0.47
2013-1-29,51.6,45.8,40.6,45.0,40.6,37.0,96,82,66,30.23,30.04,8,3,15,0.00
2013-1-30,54.5,48.4,41.9,48.0,43.4,37.0,97,84,62,30.23,30.16,10,3,11,0.00
2013-1-31,59.9,51.7,46.4,52.0,47.5,43.0,96,86,70,30.19,30.11,17,4,22,0.00